User: anonymous   Login
Location: Caltech
(34.1382°N, 118.1253°W)
Time: 08:08:37
(UTC-07:00)
Language:

Cosmos 1626 - Orbit

View from above orbital plane
View from above orbital plane
View from above satellite
View from above satellite

Ground track
Ground track

The orbit data is extracted from the following two-line orbital elements,

1 15494U 85009A   17086.75288889 +.00001630 +00000-0 +69563-4 0  9995
2 15494 082.4809 331.1351 0002412 016.8759 044.2761 15.22215530756095
Epoch (UTC): 27 March 2017 18:04:09
Eccentricity: 0.0002412
inclination: 82.4809°
perigee height: 497 km
apogee height: 501 km
right ascension of ascending node: 331.1351°
argument of perigee: 16.8759°
revolutions per day: 15.22215530
mean anomaly at epoch: 44.2761°
orbit number at epoch: 75609

The dashed part of the orbit path shows where the satellite is in the earth's shadow,  

DLR